| time (UTC) | temp F | wind direction | speed MPH | gust MPH | rain 1hr in | rain 24hr in | rain mn in | humidity % | barometer mb |
| 20260902163253 | 73 | 99 | 0.0 | 7.0 | 0.03 | 1.18 | 1.18 | 96 | 1015.4 |
| 20260902162236 | 71 | 356 | 0.0 | 4.0 | 0.06 | 1.18 | 1.18 | 99 | 1015.5 |
| 20260902161233 | 70 | 68 | 0.0 | 2.0 | 0.08 | 1.18 | 1.18 | 99 | 1015.6 |
| 20260902160236 | 69 | 284 | 0.0 | 2.0 | 0.12 | 1.18 | 1.18 | 99 | 1015.9 |
| 20260902155242 | 68 | 289 | 0.0 | 2.0 | 0.22 | 1.18 | 1.18 | 99 | 1016.0 |
| 20260902154236 | 68 | 250 | 0.0 | 5.0 | 0.26 | 1.16 | 1.16 | 99 | 1016.5 |
| 20260902153233 | 68 | 67 | 0.0 | 1.0 | 0.28 | 1.14 | 1.14 | 99 | 1016.7 |
| 20260902152256 | 68 | 49 | 0.0 | 1.0 | 0.29 | 1.11 | 1.11 | 99 | 1017.9 |
| 20260902151233 | 68 | 0.0 | 0.0 | 0.30 | 1.09 | 1.09 | 99 | 1018.2 | |
| 20260902150256 | 68 | 279 | 0.0 | 2.0 | 0.30 | 1.05 | 1.05 | 99 | 1018.6 |
| 20260902145233 | 68 | 0.0 | 0.0 | 0.60 | 0.96 | 0.96 | 99 | 1018.4 | |
| 20260902144236 | 69 | 298 | 0.0 | 4.0 | 0.80 | 0.89 | 0.89 | 99 | 1018.7 |
| 20260902143233 | 69 | 0.0 | 0.0 | 0.82 | 0.85 | 0.85 | 99 | 1017.9 | |
| 20260902142236 | 69 | 0.0 | 0.0 | 0.80 | 0.81 | 0.81 | 99 | 1017.9 | |
| 20260902141233 | 69 | 0.0 | 0.0 | 0.77 | 0.78 | 0.78 | 99 | 1017.6 | |
| 20260902140444 | 69 | 0.0 | 0.0 | 0.74 | 0.74 | 0.74 | 99 | 1017.8 | |
| 20260902135234 | 67 | 320 | 0.0 | 4.0 | 0.35 | 0.35 | 0.35 | 99 | 1017.9 |
| 20260902134236 | 68 | 0.0 | 0.0 | 0.09 | 0.09 | 0.09 | 99 | 1017.1 | |
| 20260902133234 | 68 | 0.0 | 0.0 | 0.02 | 0.02 | 0.02 | 99 | 1017.3 | |
| 20260902132236 | 68 | 0.0 | 0.0 | 0.00 | 0.00 | 0.00 | 99 | 1017.6 | |
| 20260902131234 | 68 | 90 | 0.0 | 4.0 | 0.00 | 0.00 | 0.00 | 99 | 1017.4 |
| 20260902130233 | 68 | 0.0 | 0.0 | 0.00 | 0.00 | 0.00 | 99 | 1017.5 | |
| 20260902125254 | 68 | 34 | 0.0 | 1.0 | 0.00 | 0.00 | 0.00 | 99 | 1017.3 |
| 20260902124233 | 68 | 0.0 | 0.0 | 0.00 | 0.00 | 0.00 | 99 | 1017.1 | |
| 20260902123234 | 68 | 0.0 | 0.0 | 0.00 | 0.00 | 0.00 | 99 | 1017.1 | |
| 20260902122233 | 68 | 0.0 | 0.0 | 0.00 | 0.00 | 0.00 | 99 | 1017.3 | |
| 20260902121234 | 68 | 0.0 | 0.0 | 0.00 | 0.00 | 0.00 | 99 | 1017.0 | |
| 20260902120253 | 68 | 0.0 | 0.0 | 0.00 | 0.00 | 0.00 | 99 | 1016.5 | |
| 20260902115234 | 68 | 87 | 0.0 | 1.0 | 0.00 | 0.00 | 0.00 | 99 | 1016.5 |
| 20260902114253 | 68 | 83 | 0.0 | 2.0 | 0.00 | 0.00 | 0.00 | 99 | 1016.6 |
| 20260902113254 | 68 | 78 | 0.0 | 1.0 | 0.00 | 0.00 | 0.00 | 99 | 1016.4 |
| 20260902112233 | 68 | 78 | 0.0 | 5.0 | 0.00 | 0.00 | 0.00 | 99 | 1016.4 |
| 20260902111234 | 67 | 83 | 0.0 | 1.0 | 0.00 | 0.00 | 0.00 | 99 | 1016.3 |
| 20260902110233 | 67 | 0.0 | 0.0 | 0.00 | 0.00 | 0.00 | 99 | 1016.3 | |
| 20260902105234 | 67 | 93 | 0.0 | 2.0 | 0.00 | 0.00 | 0.00 | 99 | 1016.1 |
| 20260902104233 | 67 | 0.0 | 0.0 | 0.00 | 0.00 | 0.00 | 99 | 1016.0 | |
| 20260902103234 | 67 | 0.0 | 0.0 | 0.00 | 0.00 | 0.00 | 99 | 1016.2 | |
| 20260902102233 | 67 | 0.0 | 0.0 | 0.00 | 0.00 | 0.00 | 99 | 1016.6 | |
| 20260902101234 | 67 | 0.0 | 0.0 | 0.00 | 0.00 | 0.00 | 99 | 1016.9 | |
| 20260902100233 | 67 | 0.0 | 0.0 | 0.00 | 0.00 | 0.00 | 99 | 1016.9 | |
| 20260902095234 | 67 | 0.0 | 0.0 | 0.00 | 0.00 | 0.00 | 99 | 1016.6 | |
| 20260902094233 | 67 | 0.0 | 0.0 | 0.00 | 0.00 | 0.00 | 99 | 1016.9 | |
| 20260902093234 | 67 | 0.0 | 0.0 | 0.00 | 0.02 | 0.00 | 99 | 1016.7 | |
| 20260902092233 | 67 | 0.0 | 0.0 | 0.00 | 0.02 | 0.00 | 99 | 1016.8 | |
| 20260902091234 | 67 | 0.0 | 0.0 | 0.00 | 0.02 | 0.00 | 99 | 1016.7 | |
| 20260902090233 | 67 | 0.0 | 0.0 | 0.00 | 0.02 | 0.00 | 99 | 1016.8 | |
| 20260902085234 | 67 | 0.0 | 0.0 | 0.00 | 0.02 | 0.00 | 99 | 1016.8 | |
| 20260902084253 | 66 | 0.0 | 0.0 | 0.00 | 0.02 | 0.00 | 99 | 1017.0 | |
| 20260902083254 | 66 | 0.0 | 0.0 | 0.00 | 0.02 | 0.00 | 99 | 1017.1 | |
| 20260902082233 | 66 | 0.0 | 0.0 | 0.00 | 0.02 | 0.00 | 99 | 1017.0 | |
| 20260902081234 | 66 | 0.0 | 0.0 | 0.00 | 0.02 | 0.00 | 99 | 1016.9 | |
| 20260902080233 | 66 | 0.0 | 0.0 | 0.00 | 0.02 | 0.00 | 99 | 1017.0 | |
| 20260902075234 | 66 | 0.0 | 0.0 | 0.00 | 0.02 | 0.00 | 99 | 1016.8 | |
| 20260902074253 | 66 | 0.0 | 0.0 | 0.00 | 0.02 | 0.00 | 99 | 1017.0 | |
| 20260902073234 | 67 | 0.0 | 0.0 | 0.00 | 0.02 | 0.00 | 99 | 1016.8 | |
| 20260902072233 | 67 | 0.0 | 0.0 | 0.00 | 0.02 | 0.00 | 99 | 1016.9 | |
| 20260902071234 | 67 | 0.0 | 0.0 | 0.00 | 0.12 | 0.00 | 99 | 1016.8 | |
| 20260902070233 | 67 | 0.0 | 0.0 | 0.00 | 0.16 | 0.00 | 99 | 1016.8 | |
| 20260902065234 | 66 | 0.0 | 0.0 | 0.00 | 0.18 | 0.00 | 99 | 1016.6 | |
| 20260902064253 | 66 | 0.0 | 0.0 | 0.00 | 0.19 | 0.00 | 99 | 1016.8 | |
| 20260902063234 | 66 | 0.0 | 0.0 | 0.00 | 0.19 | 0.00 | 99 | 1016.8 | |
| 20260902062233 | 66 | 0.0 | 0.0 | 0.00 | 0.19 | 0.00 | 99 | 1017.1 | |
| 20260902061234 | 66 | 0.0 | 0.0 | 0.00 | 0.19 | 0.00 | 99 | 1016.7 | |
| 20260902060233 | 66 | 0.0 | 0.0 | 0.00 | 0.19 | 0.00 | 99 | 1016.9 | |
| 20260902055234 | 66 | 0.0 | 0.0 | 0.00 | 0.19 | 0.00 | 99 | 1016.6 | |
| 20260902054233 | 66 | 0.0 | 0.0 | 0.00 | 0.19 | 0.00 | 99 | 1016.9 | |
| 20260902053234 | 66 | 0.0 | 0.0 | 0.00 | 0.19 | 0.00 | 99 | 1016.7 | |
| 20260902052233 | 66 | 0.0 | 0.0 | 0.00 | 0.19 | 0.00 | 99 | 1016.9 | |
| 20260902051234 | 66 | 0.0 | 0.0 | 0.00 | 0.19 | 0.00 | 99 | 1016.5 | |
| 20260902050233 | 66 | 0.0 | 0.0 | 0.00 | 0.19 | 0.00 | 99 | 1016.8 | |
| 20260902045234 | 66 | 0.0 | 0.0 | 0.00 | 0.19 | 0.00 | 99 | 1016.6 | |
| 20260902044254 | 66 | 0.0 | 0.0 | 0.00 | 0.19 | 0.00 | 99 | 1016.7 | |
| 20260902043234 | 66 | 0.0 | 0.0 | 0.00 | 0.19 | 0.00 | 99 | 1016.4 | |
| 20260902042233 | 67 | 0.0 | 0.0 | 0.00 | 0.19 | 0.00 | 99 | 1016.6 | |
| 20260902041234 | 67 | 0.0 | 0.0 | 0.00 | 0.19 | 0.00 | 99 | 1016.3 | |
| 20260902040233 | 66 | 0.0 | 0.0 | 0.00 | 0.19 | 0.00 | 99 | 1016.3 | |
| 20260902035234 | 67 | 0.0 | 0.0 | 0.00 | 0.19 | 0.19 | 99 | 1016.4 | |
| 20260902034233 | 67 | 0.0 | 0.0 | 0.00 | 0.19 | 0.19 | 99 | 1016.7 | |
| 20260902033235 | 67 | 0.0 | 0.0 | 0.00 | 0.19 | 0.19 | 99 | 1016.4 | |
| 20260902032233 | 68 | 0.0 | 0.0 | 0.00 | 0.19 | 0.19 | 99 | 1016.5 | |
| 20260902031234 | 68 | 0.0 | 0.0 | 0.00 | 0.19 | 0.19 | 99 | 1016.2 | |
| 20260902030233 | 69 | 0.0 | 0.0 | 0.00 | 0.19 | 0.19 | 99 | 1016.5 | |
| 20260902025234 | 69 | 0.0 | 0.0 | 0.00 | 0.19 | 0.19 | 99 | 1016.1 | |
| 20260902024233 | 69 | 0.0 | 0.0 | 0.00 | 0.19 | 0.19 | 99 | 1016.3 | |
| 20260902023234 | 69 | 0.0 | 0.0 | 0.00 | 0.19 | 0.19 | 99 | 1016.2 | |
| 20260902022233 | 69 | 0.0 | 0.0 | 0.00 | 0.19 | 0.19 | 99 | 1016.5 | |
| 20260902021234 | 70 | 0.0 | 0.0 | 0.00 | 0.19 | 0.19 | 99 | 1015.6 | |
| 20260902020233 | 70 | 0.0 | 0.0 | 0.00 | 0.19 | 0.19 | 99 | 1016.6 | |
| 20260902015234 | 70 | 0.0 | 0.0 | 0.00 | 0.19 | 0.19 | 99 | 1015.6 | |
| 20260902014233 | 70 | 0.0 | 0.0 | 0.00 | 0.19 | 0.19 | 98 | 1016.5 | |
| 20260902013234 | 71 | 0.0 | 0.0 | 0.00 | 0.19 | 0.19 | 98 | 1016.3 | |
| 20260902012233 | 71 | 0.0 | 0.0 | 0.00 | 0.19 | 0.19 | 98 | 1016.3 | |
| 20260902011234 | 71 | 0.0 | 0.0 | 0.00 | 0.19 | 0.19 | 98 | 1015.2 | |
| 20260902010233 | 71 | 0.0 | 0.0 | 0.00 | 0.19 | 0.19 | 98 | 1016.0 | |
| 20260902005234 | 71 | 78 | 0.0 | 1.0 | 0.00 | 0.19 | 0.19 | 98 | 1014.8 |
| 20260902004233 | 71 | 0.0 | 0.0 | 0.00 | 0.19 | 0.19 | 98 | 1015.6 | |
| 20260902003255 | 71 | 0.0 | 0.0 | 0.00 | 0.19 | 0.19 | 97 | 1014.4 | |
| 20260902002233 | 72 | 100 | 0.0 | 4.0 | 0.00 | 0.19 | 0.19 | 97 | 1015.1 |
| 20260902001235 | 72 | 0.0 | 0.0 | 0.00 | 0.19 | 0.19 | 97 | 1014.2 | |
| 20260902000234 | 72 | 0.0 | 0.0 | 0.00 | 0.19 | 0.19 | 96 | 1014.9 | |
| 20260901235235 | 72 | 0.0 | 0.0 | 0.00 | 0.19 | 0.19 | 96 | 1014.0 | |
| 20260901234233 | 72 | 0.0 | 0.0 | 0.00 | 0.19 | 0.19 | 95 | 1015.0 | |
| 20260901233235 | 73 | 0.0 | 0.0 | 0.00 | 0.19 | 0.19 | 95 | 1014.2 | |
| 20260901232233 | 73 | 0.0 | 0.0 | 0.00 | 0.19 | 0.19 | 94 | 1015.1 | |
| 20260901231235 | 73 | 0.0 | 0.0 | 0.00 | 0.19 | 0.19 | 94 | 1014.2 | |
| 20260901230233 | 74 | 78 | 0.0 | 1.0 | 0.00 | 0.19 | 0.19 | 93 | 1015.2 |
| 20260901225235 | 74 | 89 | 0.0 | 1.0 | 0.00 | 0.19 | 0.19 | 93 | 1014.1 |
| 20260901224233 | 75 | 98 | 0.0 | 1.0 | 0.00 | 0.19 | 0.19 | 92 | 1015.4 |
| 20260901223235 | 75 | 0.0 | 0.0 | 0.00 | 0.19 | 0.19 | 92 | 1014.3 | |
| 20260901222253 | 75 | 0.0 | 0.0 | 0.00 | 0.19 | 0.19 | 92 | 1015.4 | |
| 20260901221235 | 76 | 0.0 | 0.0 | 0.00 | 0.19 | 0.19 | 91 | 1014.0 | |
| 20260901220233 | 76 | 0.0 | 0.0 | 0.00 | 0.19 | 0.19 | 91 | 1014.9 | |
| 20260901215235 | 77 | 0.0 | 0.0 | 0.00 | 0.19 | 0.19 | 89 | 1013.8 | |
| 20260901214233 | 77 | 0.0 | 0.0 | 0.00 | 0.19 | 0.19 | 90 | 1014.9 | |
| 20260901213235 | 77 | 0.0 | 0.0 | 0.00 | 0.19 | 0.19 | 89 | 1013.9 | |
| 20260901212233 | 77 | 87 | 0.0 | 1.0 | 0.00 | 0.19 | 0.19 | 89 | 1014.9 |
| 20260901211235 | 77 | 0.0 | 0.0 | 0.00 | 0.19 | 0.19 | 90 | 1014.8 | |
| 20260901210253 | 77 | 62 | 0.0 | 2.0 | 0.00 | 0.19 | 0.19 | 89 | 1015.0 |
| 20260901205235 | 76 | 0.0 | 0.0 | 0.00 | 0.19 | 0.19 | 90 | 1014.9 | |
| 20260901204233 | 77 | 0.0 | 0.0 | 0.00 | 0.19 | 0.19 | 90 | 1015.2 | |
| 20260901203235 | 76 | 0.0 | 0.0 | 0.00 | 0.19 | 0.19 | 91 | 1015.0 | |
| 20260901202233 | 76 | 0.0 | 0.0 | 0.00 | 0.19 | 0.19 | 91 | 1015.0 | |
| 20260901201235 | 77 | 81 | 0.0 | 2.0 | 0.00 | 0.19 | 0.19 | 90 | 1014.8 |
| 20260901200233 | 77 | 0.0 | 0.0 | 0.00 | 0.19 | 0.19 | 90 | 1014.9 | |
| 20260901195235 | 77 | 0.0 | 0.0 | 0.00 | 0.19 | 0.19 | 90 | 1014.7 | |
| 20260901194233 | 77 | 0.0 | 0.0 | 0.00 | 0.19 | 0.19 | 88 | 1014.9 | |
| 20260901193235 | 77 | 0.0 | 0.0 | 0.00 | 0.19 | 0.19 | 89 | 1014.8 | |
| 20260901192253 | 79 | 0.0 | 0.0 | 0.00 | 0.19 | 0.19 | 87 | 1014.9 | |
| 20260901191235 | 78 | 0.0 | 0.0 | 0.00 | 0.19 | 0.19 | 88 | 1014.8 | |
| 20260901190234 | 78 | 0.0 | 0.0 | 0.00 | 0.19 | 0.19 | 88 | 1015.0 | |
| 20260901185235 | 78 | 0.0 | 0.0 | 0.00 | 0.19 | 0.19 | 87 | 1014.7 | |
| 20260901184233 | 78 | 115 | 0.0 | 1.0 | 0.00 | 0.19 | 0.19 | 88 | 1014.7 |
| 20260901183235 | 77 | 0.0 | 0.0 | 0.00 | 0.19 | 0.19 | 89 | 1014.6 | |
| 20260901182253 | 77 | 90 | 0.0 | 2.0 | 0.00 | 0.19 | 0.19 | 90 | 1014.7 |
| 20260901181235 | 77 | 87 | 0.0 | 2.0 | 0.00 | 0.19 | 0.19 | 91 | 1014.6 |
| 20260901180233 | 77 | 0.0 | 0.0 | 0.00 | 0.19 | 0.19 | 91 | 1014.6 | |
| 20260901175235 | 77 | 0.0 | 0.0 | 0.00 | 0.19 | 0.19 | 90 | 1014.3 | |
| 20260901174233 | 77 | 66 | 0.0 | 1.0 | 0.00 | 0.19 | 0.19 | 91 | 1014.2 |
| 20260901173235 | 77 | 0.0 | 0.0 | 0.00 | 0.19 | 0.19 | 91 | 1014.2 | |
| 20260901172233 | 75 | 0.0 | 0.0 | 0.00 | 0.19 | 0.19 | 94 | 1014.2 | |
| 20260901171235 | 74 | 0.0 | 0.0 | 0.00 | 0.19 | 0.19 | 94 | 1014.0 | |
| 20260901170233 | 74 | 0.0 | 0.0 | 0.00 | 0.19 | 0.19 | 95 | 1014.4 | |
| 20260901165235 | 75 | 0.0 | 0.0 | 0.00 | 0.19 | 0.19 | 94 | 1014.4 | |
| 20260901164233 | 75 | 0.0 | 0.0 | 0.00 | 0.19 | 0.19 | 94 | 1014.4 |